Location: Kampung Segan
(3.1399°N, 113.1002°E)
Time: 13:24:54
(UTC+00:00)

MOS 1-B Rocket - Pass Details

Date: 14 October 2025
Orbit: 891 x 1603 km, 99.0° (Epoch: 16 November)

Event Time Altitude Azimuth Distance (km) Brightness Sun altitude
Rises 20:27:04 0° 8° (N) 4,546 7.5 -26.8°
Reaches altitude 10° 20:29:47 10° 6° (N) 3,637 6.9 -26.1°
Maximum altitude 20:38:31 72° 284° (WNW) 1,655 4.9 -23.9°
Drops below altitude 10° 20:47:44 10° 201° (SSW) 3,810 6.9 -21.7°
Sets 20:50:39 0° 199° (SSW) 4,772 7.5 -20.9°
